Location: Maidenhead
(51.5224°N, 0.7219°W)
Time: 19:23:17
(UTC+00:00)

ISS - Visible Passes

Search period start: 11 December 2025 00:00
Search period end: 21 December 2025 00:00
Orbit: 416 x 420 km, 51.6° (Epoch: 11 December)

Date Brightness Start Highest point End Pass type
(mag) Time Alt. Az. Time Alt. Az. Time Alt. Az.
12 Dec -0.7 07:01:22 10° S 07:03:42 17° SE 07:06:01 10° E visible
13 Dec -0.4 06:14:38 10° SSE 06:15:57 12° SE 06:17:18 10° ESE visible
14 Dec -1.9 07:01:07 10° SW 07:04:12 33° SSE 07:07:17 10° E visible
15 Dec -1.4 06:13:32 10° SSW 06:16:19 24° SSE 06:19:06 10° E visible
16 Dec -1.0 05:26:39 12° S 05:28:26 17° SE 05:30:43 10° E visible
16 Dec -3.1 07:01:24 10° WSW 07:04:43 58° SSE 07:08:03 10° E visible
17 Dec -0.5 04:41:11 11° SE 04:41:11 11° SE 04:41:47 10° ESE visible
17 Dec -2.7 06:14:09 15° SW 06:16:42 44° SSE 06:19:56 10° E visible
18 Dec -2.3 05:28:26 32° SSE 05:28:41 32° SSE 05:31:44 10° E visible
18 Dec -3.7 07:01:50 10° WSW 07:05:14 84° SSE 07:08:36 10° E visible
19 Dec -0.6 04:42:32 15° ESE 04:42:32 15° ESE 04:43:25 10° E visible
19 Dec -3.6 06:15:29 28° WSW 06:17:05 72° SSE 06:20:27 10° E visible
20 Dec -2.9 05:29:26 50° ESE 05:29:26 50° ESE 05:32:15 10° E visible
20 Dec -3.8 07:02:22 11° W 07:05:40 86° N 07:09:02 10° E visible
